Wind_Speed
58 59 59 60 60 60 59 58 58 57 57 58 59 60 60 61 62 63 64 66 67 69 69 69 70 70 71 72 72 72 71 70 69 68 67 66 67 67 66 66 65 65 65 65 65 64 64 63 61 60 59 58 56 54 53 53 52 49 47 45 43 41 38 34 31 28 26 25 25 26 28 28 26 25 25 25 24 22 20 18 16 14 13 13 14
61 61 63 63 63 63 62 60 60 59 60 60 61 61 62 63 64 65 66 67 69 70 71 71 71 71 72 72 72 72 71 70 68 67 66 66 66 66 66 65 65 65 65 65 64 63 62 61 60 59 58 57 54 54 54 52 49 47 45 43 40 38 35 32 29 26 23 22 24 26 26 25 24 24 25 24 21 18 16 15 14 13 10 9 11
64 65 66 66 66 64 63 62 61 61 61 62 62 63 64 65 66 66 67 68 70 71 72 72 73 73 72 72 71 71 70 69 67 66 66 66 66 66 65 65 65 65 65 64 63 62 61 60 59 58 57 55 54 54 53 50 46 44 43 40 38 36 32 29 27 23 21 22 24 25 23 22 23 24 23 21 18 16 15 15 14 12 9 8 9
67 68 68 68 67 66 65 64 63 63 62 63 64 65 66 66 67 68 69 70 70 71 72 73 74 74 72 71 71 70 69 68 67 66 66 66 65 65 65 65 65 64 64 63 62 61 60 59 58 57 55 54 54 54 51 47 44 42 40 37 35 32 29 27 24 20 19 22 23 22 21 22 23 22 20 18 17 16 15 14 13 11 9 8 8
70 71 71 70 69 67 66 65 65 64 63 64 65 66 67 67 68 69 70 71 71 72 73 74 74 73 72 71 70 70 68 67 67 66 66 65 65 65 65 65 64 63 62 61 61 61 60 58 57 55 54 54 54 51 47 44 41 38 36 34 32 29 27 25 21 18 19 22 22 20 21 22 21 19 17 16 16 16 15 14 13 11 9 8 8
73 73 74 72 70 69 67 66 66 65 65 65 66 67 68 68 69 70 71 72 72 73 73 74 73 73 72 70 70 69 68 67 67 66 65 65 65 65 64 63 62 61 61 61 61 60 59 57 55 53 53 53 51 47 43 40 37 35 33 30 28 26 25 22 18 17 19 21 19 19 21 21 19 17 17 17 16 16 16 15 13 12 10 8 8
75 76 75 73 71 70 68 68 67 67 66 66 67 68 68 69 69 70 71 72 73 73 73 73 72 72 71 70 70 69 69 67 67 65 64 64 64 63 63 62 61 61 61 60 60 59 57 55 52 52 52 51 46 42 39 37 35 34 31 28 25 24 23 19 16 16 19 19 17 19 20 19 18 18 18 19 18 17 16 15 14 13 11 9 8
77 77 76 74 72 71 70 69 68 68 68 68 68 69 69 70 70 71 72 72 73 73 72 72 71 71 70 70 70 70 69 68 66 65 64 63 62 62 61 61 60 60 60 60 59 58 56 53 51 51 50 46 42 39 36 35 35 32 29 25 23 22 20 16 14 16 17 16 16 18 19 19 19 19 20 19 19 18 17 16 15 14 12 10 9
78 77 76 74 73 71 71 70 70 69 69 69 69 70 70 70 71 71 72 72 72 72 71 70 70 70 70 70 69 69 69 68 66 64 63 62 61 61 61 60 59 59 59 59 58 56 53 51 51 50 46 42 38 36 35 35 34 30 26 23 21 20 17 14 13 15 15 15 16 18 19 20 19 19 18 18 18 18 17 16 15 14 13 12 10
78 78 77 75 74 72 72 71 71 71 70 70 70 70 70 71 72 72 72 71 71 70 70 69 69 69 69 69 69 69 68 67 66 64 62 61 61 61 60 59 58 59 59 57 56 54 52 51 50 46 41 37 35 35 35 34 31 27 23 21 19 17 15 12 13 14 14 14 15 18 20 20 18 17 17 17 17 17 16 16 15 14 13 13 12
78 78 77 76 74 73 72 72 72 71 71 71 71 71 71 72 71 71 71 70 70 70 69 69 68 69 69 69 69 68 68 67 66 64 62 61 60 60 59 58 58 58 57 55 54 53 52 50 47 41 36 33 34 35 34 31 27 24 21 19 17 15 13 11 12 13 13 13 15 17 19 18 17 17 17 17 17 16 16 16 15 15 14 13 13
78 78 77 75 74 73 73 72 72 72 71 71 71 71 72 71 71 70 70 69 69 69 69 68 68 68 68 68 68 68 68 67 66 64 62 60 60 59 58 57 57 56 54 53 52 51 50 47 42 36 32 31 33 34 31 27 25 22 20 18 16 14 12 11 12 13 13 13 15 17 18 16 16 17 17 16 16 16 16 15 15 15 14 14 13
78 78 76 75 73 73 73 72 72 72 72 71 71 72 71 71 70 69 69 69 69 69 69 68 68 68 68 68 68 68 68 68 66 64 62 60 59 58 57 56 54 53 53 52 50 49 46 42 37 32 29 31 33 30 27 26 24 21 18 16 15 14 11 11 13 13 13 14 15 17 17 14 15 16 16 15 14 15 16 16 16 15 15 15 15
78 77 76 74 73 73 72 72 72 72 71 71 72 71 70 70 69 69 69 70 69 69 69 69 68 69 69 69 69 69 69 68 66 64 62 60 58 56 55 54 53 53 53 50 48 45 42 38 33 29 29 31 30 26 25 26 23 19 17 15 14 13 11 11 13 14 14 14 15 17 16 14 14 16 14 13 13 16 18 18 17 16 16 15 15
78 77 75 74 73 72 72 72 72 71 71 71 71 70 70 70 69 70 70 70 70 70 70 70 70 70 70 69 69 69 68 67 66 64 62 59 56 54 53 51 51 51 50 47 45 41 38 34 30 30 31 30 27 24 25 25 22 18 15 14 14 12 11 12 14 15 14 14 15 16 15 14 14 14 13 13 15 17 19 19 18 17 16 16 16
78 76 75 73 73 72 72 72 72 71 71 71 71 71 70 70 70 70 70 71 71 71 71 70 70 70 70 70 69 69 67 66 64 62 59 54 51 49 48 46 47 47 46 44 41 38 35 32 30 32 32 28 25 24 25 25 21 17 14 13 13 12 12 14 15 15 15 15 14 15 14 13 13 13 13 15 17 19 21 21 19 17 17 16 16
76 74 74 73 73 72 72 72 72 72 72 72 72 72 71 71 71 71 71 72 72 72 71 70 70 69 69 69 67 66 64 62 59 55 50 45 44 44 42 42 44 44 43 41 38 35 32 30 30 33 33 28 26 25 26 25 21 17 14 12 13 13 13 15 15 15 16 16 15 15 14 12 12 13 14 16 18 21 22 21 19 17 17 16 16
74 73 73 74 74 73 73 73 73 73 73 73 73 73 72 72 72 72 73 72 71 70 69 68 67 66 65 63 61 58 54 51 47 43 40 40 41 41 40 41 42 41 39 37 34 31 30 30 31 34 33 29 27 25 26 25 21 17 14 12 12 13 15 17 16 16 16 17 16 14 13 11 11 12 14 16 19 21 22 21 18 17 17 17 16
76 75 76 76 75 75 74 73 74 74 74 74 74 73 73 73 73 73 70 67 65 64 63 62 60 57 54 51 48 46 44 42 41 39 40 42 43 43 42 42 39 36 34 32 29 29 29 29 32 35 33 30 27 26 25 25 21 17 15 14 13 14 16 18 18 17 17 18 16 13 12 11 10 11 13 16 19 22 23 21 18 18 18 18 17
78 78 78 78 77 76 75 74 75 75 75 75 75 74 74 73 71 68 63 61 60 58 55 53 51 48 45 43 42 42 43 43 43 44 44 44 44 43 42 39 34 30 28 27 26 28 28 29 32 35 33 30 27 25 24 24 21 17 16 16 16 16 17 19 19 19 18 18 16 13 12 11 10 11 13 16 19 22 23 21 19 19 19 19 18
78 78 79 79 79 78 77 77 77 76 76 75 75 73 70 68 65 62 61 61 58 55 53 51 49 46 43 43 43 46 47 47 48 46 45 44 42 41 40 34 28 25 25 24 25 27 28 29 32 34 32 30 27 25 23 23 22 19 17 17 18 18 19 20 21 21 19 18 16 14 12 12 11 11 13 15 18 22 24 22 20 20 20 19 19
77 77 78 78 79 78 78 77 77 76 76 74 72 70 67 65 64 64 63 60 56 54 53 50 48 47 46 47 48 51 51 51 50 45 43 43 41 39 35 28 24 25 24 24 25 27 28 29 33 34 32 31 28 25 23 23 22 20 18 18 19 20 20 20 21 21 18 17 16 14 13 12 11 12 13 15 17 21 23 23 21 21 21 20 19
75 75 75 75 76 76 75 74 74 73 71 70 68 67 66 66 64 62 59 56 54 53 51 49 47 49 51 51 51 52 52 50 46 41 40 40 39 34 28 25 26 27 24 23 25 26 28 30 33 33 32 31 29 27 25 23 22 21 19 19 19 20 20 20 20 19 16 16 16 15 14 14 13 13 14 15 17 20 22 22 22 22 22 22 20
72 73 73 73 72 72 70 70 68 67 66 65 64 62 62 60 58 57 56 54 53 51 51 50 50 51 52 50 49 48 47 45 41 38 38 37 34 29 25 27 29 28 25 23 24 25 27 30 33 33 32 32 31 29 27 24 21 20 20 19 20 20 20 20 19 18 15 15 16 16 16 16 16 15 15 15 16 19 21 21 23 22 23 22 21
71 71 72 70 69 67 66 65 64 63 62 61 59 57 56 55 54 55 55 54 53 53 52 52 51 50 48 45 44 43 41 39 37 36 35 33 29 27 28 31 31 28 25 24 24 25 28 31 33 33 33 33 32 30 28 25 22 20 20 20 19 19 21 21 20 17 15 15 16 17 18 17 17 16 15 16 17 19 20 21 23 23 23 23 21
70 69 69 67 65 64 63 63 62 61 59 57 55 53 53 53 53 53 54 54 53 52 51 49 48 45 43 40 39 39 38 36 34 33 30 28 28 29 31 32 31 27 24 23 24 25 28 31 33 33 34 34 33 31 28 26 23 21 20 20 20 19 21 21 20 18 15 16 17 18 20 19 18 17 17 18 19 20 20 21 23 23 23 22 21
67 66 65 64 63 62 61 61 60 59 56 55 53 52 51 51 50 51 51 51 50 49 47 45 44 42 40 38 37 38 37 34 31 29 27 28 30 31 33 33 30 26 24 24 24 26 29 31 33 33 34 34 33 31 28 26 24 22 21 21 21 20 21 21 21 18 16 17 18 19 21 20 18 18 19 20 21 21 20 21 23 23 23 22 20
65 65 64 63 62 61 60 59 57 56 54 53 51 50 49 48 48 47 47 47 47 46 44 43 43 41 39 39 39 38 36 34 29 28 30 32 32 32 33 32 29 26 25 24 24 27 30 31 32 33 34 33 32 29 27 26 24 22 22 22 22 22 22 21 21 19 16 17 18 20 22 21 19 20 21 23 23 22 21 21 22 23 23 22 19
64 64 63 62 61 60 57 56 55 53 52 50 48 47 46 46 46 46 46 46 45 44 42 43 43 41 39 39 38 36 33 31 29 31 35 34 31 32 34 32 29 27 25 25 25 28 29 30 32 33 35 33 30 28 26 26 24 23 23 23 24 23 22 21 21 20 17 18 18 20 22 21 20 21 23 25 25 24 22 20 22 23 24 22 19
64 63 61 60 59 57 55 53 53 51 49 47 46 45 44 45 45 45 45 44 43 41 39 40 39 36 36 34 33 32 31 30 31 35 34 32 31 34 35 32 30 27 26 26 26 28 30 31 33 35 35 33 30 27 26 26 25 24 23 24 24 24 22 21 21 20 18 17 18 20 22 22 22 23 25 26 26 26 23 20 21 23 24 22 19
62 60 59 57 56 55 53 51 51 49 47 45 44 44 44 44 44 42 41 39 38 35 33 36 33 31 32 31 29 30 31 31 33 35 33 31 34 37 36 33 30 28 26 26 27 29 30 32 35 36 35 32 29 26 26 26 25 25 24 25 25 24 23 22 21 20 17 17 19 21 23 23 24 25 26 27 27 26 22 20 21 23 24 22 19
60 59 57 55 54 53 51 50 48 47 44 43 44 45 43 43 42 40 39 37 36 32 31 35 36 35 36 35 33 33 34 35 35 35 34 33 36 38 36 33 30 28 27 27 28 30 32 34 36 36 33 29 26 25 25 26 26 26 26 26 26 24 23 21 20 19 17 18 19 21 23 24 25 26 27 27 27 26 22 21 22 24 25 22 19
59 57 55 54 53 52 50 48 46 44 42 40 42 43 40 39 41 40 39 38 37 32 31 35 38 38 38 37 36 33 30 32 34 34 34 35 38 39 35 32 30 28 27 28 29 31 33 36 36 34 30 26 24 24 24 23 23 23 24 24 24 23 22 21 19 18 17 19 20 22 24 24 25 26 28 27 26 25 23 23 23 25 25 21 20
58 56 54 53 52 51 49 46 44 42 39 36 39 44 42 40 41 40 37 37 37 35 35 38 40 39 38 37 37 33 26 26 30 31 34 38 41 40 35 32 30 28 29 30 31 33 35 36 35 31 27 25 23 21 21 21 20 21 22 22 21 22 22 20 17 16 17 19 21 23 23 24 25 27 28 26 25 24 24 23 23 26 24 20 21
57 56 54 52 51 49 48 46 43 41 38 34 38 43 42 37 36 37 36 38 40 38 39 41 42 41 40 39 39 38 33 32 33 35 38 42 42 39 35 32 31 31 31 32 33 34 35 35 33 29 26 23 21 20 20 21 20 20 21 22 21 21 20 17 15 15 17 19 20 21 22 23 25 27 27 25 25 24 24 24 24 25 22 20 21
55 55 54 52 50 48 48 47 44 41 36 34 37 40 40 37 37 39 39 41 42 41 40 42 43 42 40 40 40 40 39 40 40 41 43 44 41 38 35 34 33 33 33 34 34 34 34 33 31 29 26 23 22 22 22 22 21 20 21 22 21 20 19 15 14 16 18 19 20 21 22 24 26 27 27 26 24 25 24 25 26 25 22 22 22
55 54 53 52 50 48 48 47 45 41 34 33 38 41 41 41 42 44 45 46 46 44 43 44 44 42 39 39 40 41 41 42 44 45 45 44 40 37 35 34 33 33 33 33 33 34 33 32 30 29 26 25 25 24 24 22 21 20 20 21 19 19 19 15 15 18 19 21 22 23 24 25 26 27 27 25 23 24 26 26 26 26 27 26 22
54 53 52 51 51 49 48 48 46 43 37 36 40 41 40 42 45 47 48 49 48 46 46 45 43 41 39 39 41 41 42 44 46 47 44 41 38 36 34 33 33 33 34 34 34 34 33 31 30 29 27 26 26 25 24 22 21 21 20 20 18 18 19 17 17 19 20 22 23 25 25 26 26 27 27 24 22 24 26 27 28 29 30 26 22
54 53 52 51 50 49 48 48 46 44 42 41 43 46 46 48 49 49 48 48 47 46 45 43 41 39 38 39 41 43 44 46 46 46 42 38 36 35 34 35 35 36 36 35 35 34 33 32 31 29 28 27 26 25 24 22 21 21 20 19 18 18 20 20 19 20 22 24 26 26 26 27 27 26 25 23 22 25 28 30 30 30 28 24 24
53 52 51 50 49 49 48 47 47 46 45 44 46 49 50 50 50 49 47 47 46 46 44 42 41 39 40 41 42 43 45 46 45 43 41 37 36 37 37 39 39 40 39 37 36 35 35 34 32 29 28 27 27 25 24 23 22 21 20 19 19 20 22 23 24 24 25 26 27 27 27 27 26 24 24 24 25 28 30 30 31 29 25 24 28
52 51 50 49 48 47 46 46 46 45 44 44 45 46 47 47 47 46 46 46 46 45 45 43 42 42 42 43 44 44 45 46 44 42 41 40 41 42 43 44 45 45 43 39 38 37 36 35 33 29 28 27 27 25 24 23 22 22 21 20 21 22 24 26 27 27 27 28 29 28 28 29 28 26 24 25 27 29 29 29 30 29 27 28 31
49 48 47 46 45 44 44 43 43 42 41 41 42 42 44 44 44 45 45 45 45 46 46 45 45 45 44 44 45 46 46 46 45 44 44 44 45 47 48 49 49 47 42 39 38 37 36 35 33 29 28 27 27 25 23 22 22 22 22 22 23 24 27 29 30 30 31 31 31 31 31 30 28 26 25 26 28 29 29 29 30 29 29 31 33
44 43 42 41 41 40 40 40 40 39 37 37 38 40 42 42 42 44 44 44 45 46 46 47 47 48 47 48 47 48 49 49 49 49 49 50 51 51 51 50 47 43 39 37 37 37 36 35 33 30 28 27 26 25 23 22 22 23 23 24 25 27 29 31 32 33 33 33 31 30 29 27 26 26 27 27 27 27 28 28 29 31 34 37 39
40 40 39 38 37 36 36 36 37 37 35 35 38 40 42 42 41 42 43 44 45 45 46 47 48 48 49 50 50 50 51 52 52 53 53 53 52 51 49 46 42 40 38 37 37 36 35 34 32 30 28 28 27 25 23 22 22 23 24 26 28 29 31 31 31 31 31 31 30 29 28 27 27 27 28 28 28 30 31 33 36 39 42 43 41
38 37 36 35 34 34 33 34 35 36 35 36 40 41 41 40 41 41 42 43 43 44 45 46 47 47 48 49 49 49 49 50 50 51 51 50 49 47 45 42 40 39 38 38 37 36 35 34 31 30 29 29 28 27 25 23 23 24 25 27 29 30 31 31 31 30 29 29 29 29 31 32 33 33 34 35 36 38 40 41 42 43 43 41 38
37 35 34 33 32 32 32 33 34 35 35 36 38 39 39 39 39 40 40 41 42 43 43 44 45 46 46 47 47 47 47 47 47 47 47 46 45 44 42 41 39 39 38 38 37 36 34 32 31 30 30 30 30 29 27 25 25 25 26 26 27 28 29 30 29 28 27 26 26 27 31 35 36 37 37 37 37 39 40 40 40 39 38 37 36
35 33 32 32 31 31 32 33 34 35 35 35 36 37 37 38 38 38 39 39 40 41 42 42 43 43 44 44 44 44 44 44 44 44 44 43 43 42 41 39 38 38 38 37 36 34 32 31 31 30 30 31 30 28 26 26 25 26 26 27 27 27 28 27 26 26 25 24 25 26 29 32 33 33 32 30 31 33 33 34 34 35 35 35 36
34 32 31 31 31 31 32 33 34 34 34 34 35 36 36 37 37 37 38 38 39 39 40 40 40 40 40 41 41 41 41 41 41 42 41 41 40 39 39 38 37 37 36 35 34 31 30 30 31 31 31 31 29 27 26 27 27 26 27 28 28 28 28 28 27 26 25 25 26 27 29 30 30 29 27 26 27 29 30 31 32 33 34 35 36
33 32 31 31 31 31 32 33 34 34 34 34 35 35 36 36 36 36 36 37 37 37 38 38 38 38 38 38 38 38 39 39 39 39 39 38 38 37 37 36 35 35 34 33 31 30 29 30 31 31 31 30 29 28 28 28 29 28 28 28 28 28 28 28 27 26 26 27 27 29 30 31 30 28 27 27 28 29 31 32 33 34 35 36 37
33 31 31 31 32 32 33 33 34 34 34 34 35 35 35 34 34 35 35 35 35 36 36 36 36 37 37 36 36 36 36 37 37 37 37 36 36 35 35 34 34 32 31 30 29 28 29 30 31 31 31 30 29 29 29 29 30 29 28 28 28 28 28 28 28 28 28 28 29 30 31 31 30 29 28 28 30 31 32 34 35 36 37 38 38
32 31 31 31 32 32 33 33 33 34 34 34 34 34 34 33 33 34 34 34 34 34 34 35 35 35 35 35 35 35 35 35 35 35 35 35 34 34 33 32 31 29 28 28 27 28 28 30 30 31 30 30 29 30 31 30 29 28 27 27 28 30 30 30 30 30 29 29 30 31 31 31 31 31 30 31 32 33 34 36 37 38 38 38 38
Wind_Direction
282 285 286 287 288 289 290 290 291 291 292 292 293 294 295 295 295 295 296 298 299 300 301 302 304 306 307 307 307 307 307 307 308 309 309 309 309 310 310 311 311 312 312 313 314 315 315 316 316 317 317 318 318 319 320 319 318 317 316 316 315 314 313 311 309 308 309 311 311 309 308 307 308 311 313 314 314 314 315 314 314 310 301 295 289
281 285 286 286 287 288 289 290 290 291 291 291 292 293 294 294 295 296 297 298 299 300 301 302 303 305 306 306 306 306 306 307 308 308 309 310 310 310 311 311 311 312 312 313 314 315 315 316 316 317 318 318 318 319 319 319 317 317 316 316 315 314 312 309 307 307 310 310 309 308 306 307 310 313 314 315 315 315 316 317 318 315 304 285 277
280 284 285 285 286 287 288 289 289 290 291 291 291 292 293 294 295 296 297 298 298 299 300 301 302 304 305 305 305 305 305 306 307 309 310 310 310 310 310 311 311 312 312 313 314 315 315 316 316 317 318 318 318 319 319 318 317 316 316 315 315 313 310 307 306 308 310 310 308 306 306 309 311 313 315 316 315 314 316 319 319 320 313 291 278
280 283 284 284 285 286 287 287 288 289 290 290 290 291 292 293 294 295 297 297 298 299 300 301 302 303 304 304 304 304 305 306 308 309 309 309 310 310 310 310 311 312 312 313 314 315 315 316 317 318 317 317 318 319 318 317 316 316 316 316 315 313 309 305 306 310 310 308 306 306 308 310 311 313 315 314 311 310 312 317 319 321 319 306 298
279 281 282 283 283 285 285 286 288 288 289 289 289 290 291 292 294 295 296 297 297 298 299 300 301 302 303 303 303 304 305 306 308 308 309 309 309 310 310 310 311 312 313 314 315 315 316 317 317 317 317 318 319 318 317 316 316 316 317 317 315 312 307 304 306 310 310 306 305 307 311 312 313 315 315 312 308 306 305 308 313 319 320 314 310
277 279 281 282 283 284 285 286 287 287 287 288 288 289 290 292 293 294 295 296 296 297 298 299 300 301 302 303 303 304 305 306 307 308 308 309 309 309 310 310 311 313 314 315 315 315 316 317 318 317 317 318 318 317 317 317 317 317 318 317 315 310 305 303 307 311 308 304 305 311 315 314 314 314 315 313 310 308 303 299 301 311 320 319 314
276 278 280 281 282 284 285 286 286 286 287 287 288 289 290 291 292 293 294 295 296 297 298 298 299 300 301 302 303 304 305 305 306 307 308 308 309 310 310 311 312 313 314 315 315 316 316 317 317 318 318 318 318 317 317 318 318 318 317 317 314 308 303 303 309 310 305 303 309 316 318 317 314 313 315 315 314 311 306 298 293 296 309 318 317
276 278 279 280 282 283 284 284 285 285 286 287 287 288 289 290 291 292 293 294 295 296 296 297 298 300 301 302 303 303 304 304 305 306 307 309 309 310 310 311 313 314 315 315 315 315 315 316 317 318 319 318 317 317 318 319 318 318 317 316 313 306 302 304 309 308 303 304 314 320 322 320 315 315 318 319 317 314 308 303 296 289 292 305 314
275 277 278 279 280 282 282 283 284 284 285 286 287 288 289 289 290 290 291 292 293 294 295 296 298 299 300 301 302 302 303 303 304 306 307 309 309 310 310 311 313 314 315 315 315 314 314 315 317 319 318 317 317 318 320 320 319 318 317 315 311 304 302 306 309 306 303 307 316 323 325 322 319 321 323 324 322 319 313 306 300 292 284 289 301
274 275 277 278 279 280 281 282 282 283 284 285 286 287 287 288 288 289 290 291 292 293 295 296 298 299 299 300 301 301 302 303 304 306 307 308 309 310 310 311 313 314 315 314 313 313 313 314 317 318 318 317 319 321 322 321 320 319 317 314 308 302 302 306 308 306 303 308 316 323 325 323 323 325 327 328 325 322 318 311 303 295 285 280 285
273 274 275 276 278 279 280 281 282 283 283 284 285 286 286 286 287 288 289 290 292 293 295 296 297 297 298 299 299 300 301 302 303 305 306 307 308 309 310 311 312 314 314 313 312 311 311 313 316 318 318 320 323 324 324 323 322 321 318 313 305 301 302 303 306 307 304 306 313 322 324 323 324 326 327 327 324 319 316 314 308 299 288 279 276
273 273 274 276 277 278 279 280 281 282 283 284 284 284 285 285 286 287 289 290 292 293 294 295 296 296 297 297 298 299 300 301 303 304 306 307 308 308 309 311 312 313 313 311 310 309 311 313 316 318 320 324 327 327 325 326 326 324 320 312 304 301 301 299 304 308 303 303 310 320 323 323 326 329 330 330 330 325 320 316 312 305 294 283 275
272 273 274 275 277 277 278 280 281 281 282 283 283 283 284 285 286 287 289 290 292 292 293 294 295 295 296 297 298 299 300 301 302 303 305 306 307 307 308 310 312 312 312 310 308 309 311 313 315 319 325 328 330 329 328 329 329 326 320 312 305 303 300 299 304 307 302 299 306 317 321 322 328 334 338 340 346 345 340 334 325 315 303 290 279
271 273 274 275 276 277 278 279 280 281 281 282 282 282 283 285 286 288 289 290 291 292 293 294 294 295 296 297 298 298 299 300 301 303 304 305 306 306 307 309 311 311 310 308 307 308 310 312 315 323 329 333 334 332 332 333 331 329 321 312 308 306 302 302 305 305 300 295 301 313 317 321 330 337 341 343 345 345 342 341 337 328 315 300 287
271 272 273 275 276 277 278 279 279 280 280 280 281 282 283 285 286 287 289 290 291 292 293 294 295 295 296 296 297 297 298 299 300 302 303 305 305 305 307 308 310 309 308 307 307 308 309 311 316 326 333 337 338 335 336 336 332 331 323 313 311 307 302 303 304 301 297 291 296 308 314 321 331 336 337 331 330 332 335 337 335 333 326 312 297
271 272 273 275 276 276 277 278 278 278 279 279 280 282 283 284 286 288 289 290 291 292 293 294 295 295 296 296 297 296 297 298 299 301 303 304 304 305 308 309 310 308 307 307 307 307 309 312 319 329 335 341 343 338 337 338 333 331 327 317 312 306 298 299 301 299 295 288 291 302 309 320 330 333 330 325 326 329 332 335 332 330 329 321 306
271 273 273 274 275 276 276 277 277 278 279 279 281 282 284 285 287 288 289 290 291 292 293 294 294 295 295 296 295 295 296 297 299 302 304 305 306 308 310 312 311 308 307 307 306 307 310 314 321 331 337 342 346 341 338 339 335 329 326 320 312 305 296 294 297 299 296 287 285 297 304 317 331 333 328 328 332 332 332 334 334 330 329 326 315
272 273 274 275 275 275 275 276 277 278 279 280 282 283 285 286 287 288 289 290 291 292 292 293 293 294 295 295 295 296 298 300 303 306 306 308 310 310 311 312 310 307 307 306 306 309 312 316 323 332 338 342 346 345 339 339 335 326 322 319 309 299 291 289 293 298 301 292 282 289 299 311 330 333 330 332 335 335 335 336 335 330 329 329 324
273 274 274 275 274 275 275 276 277 278 279 281 282 283 284 286 287 288 289 290 291 292 292 292 293 294 295 296 298 300 301 304 306 306 305 307 309 308 307 308 307 306 307 306 308 312 314 317 323 331 337 340 344 346 340 337 333 324 317 315 307 295 290 291 293 294 301 300 285 280 293 305 323 330 329 331 335 336 337 338 334 329 327 327 327
273 274 274 274 274 275 275 276 277 278 279 280 281 282 284 286 287 287 288 290 292 292 291 291 292 294 295 296 299 301 302 303 304 304 303 304 306 305 303 303 305 306 307 308 311 314 315 317 323 330 335 337 341 344 339 334 330 322 315 312 308 302 299 298 297 293 295 301 289 274 285 298 313 324 326 326 331 335 336 336 331 328 326 323 324
272 273 273 273 274 274 275 276 276 277 278 279 281 283 284 285 285 285 287 290 289 289 289 290 292 292 293 295 299 300 300 300 301 302 302 301 303 302 300 301 305 308 308 310 313 315 315 316 322 329 332 333 337 340 338 331 327 323 316 311 308 307 309 306 301 296 292 297 288 269 276 291 304 316 320 319 324 331 333 332 328 325 326 323 320
272 272 272 272 273 274 275 276 276 277 278 279 280 282 283 283 283 284 287 287 287 287 288 290 290 290 292 296 298 297 296 298 299 300 299 299 300 298 297 301 307 311 310 310 313 315 315 316 321 326 327 329 332 334 334 329 325 322 316 309 307 307 310 309 303 296 290 293 285 265 269 283 295 307 310 312 318 326 328 327 325 323 324 325 322
271 271 271 271 272 274 274 275 276 277 278 279 280 281 281 282 283 285 286 285 286 287 287 288 289 291 293 296 296 294 295 297 298 298 296 295 295 294 296 302 309 312 310 308 311 314 315 316 320 323 323 325 327 328 328 325 321 319 312 305 303 304 309 311 306 296 287 292 282 260 264 275 286 300 307 310 315 321 323 322 322 321 322 325 324
270 270 271 272 273 273 274 275 275 277 278 280 281 281 282 283 284 284 284 284 284 285 286 287 289 292 294 295 293 293 293 295 297 295 293 291 290 292 298 306 311 311 308 307 311 314 315 315 318 320 320 322 323 322 322 321 316 313 307 300 299 303 310 311 307 295 283 292 281 256 261 271 280 297 308 311 313 317 319 320 320 318 320 325 325
271 271 271 272 273 273 274 274 275 277 278 279 281 281 281 282 282 282 282 282 283 284 286 288 290 291 291 292 291 291 292 294 296 293 289 287 286 293 302 308 311 309 306 307 310 314 315 314 316 317 317 318 319 318 317 316 311 308 303 296 297 303 310 309 305 295 280 287 278 256 260 269 278 295 308 313 313 315 318 319 319 317 318 325 325
271 272 272 272 272 273 273 274 275 276 278 279 280 280 280 281 280 280 281 281 283 284 286 288 289 289 288 289 288 289 293 295 293 288 284 283 287 297 305 308 308 306 304 306 308 312 313 313 314 314 314 315 316 315 313 311 307 304 301 296 297 303 307 305 302 295 276 278 274 256 258 267 279 294 305 312 313 314 318 318 317 316 318 323 324
271 270 270 270 271 271 272 274 275 276 278 279 280 280 281 281 281 281 281 282 283 284 286 287 287 286 285 286 287 288 292 295 288 282 280 283 290 298 305 307 305 303 302 304 306 310 312 311 312 312 312 313 314 313 311 308 303 300 299 295 296 301 303 301 299 293 274 273 271 256 257 267 280 293 301 307 311 314 316 315 315 315 316 321 321
269 268 269 269 270 270 272 273 275 276 277 279 280 281 281 281 281 281 281 282 283 285 287 287 286 285 283 283 286 286 289 290 282 279 283 285 289 297 304 305 302 299 300 302 303 307 309 310 311 311 311 312 312 312 309 305 300 298 296 292 293 297 299 297 296 291 271 269 269 255 257 266 278 291 298 303 309 313 313 312 313 313 315 317 317
267 268 268 269 269 270 272 273 274 276 277 278 279 280 281 281 281 281 282 282 283 284 286 287 286 284 283 283 284 284 285 282 277 281 285 284 287 297 303 302 297 295 297 300 302 305 307 310 311 310 310 311 312 312 307 302 297 294 291 288 289 292 295 293 294 289 270 266 265 253 256 265 277 288 296 302 308 313 311 309 311 311 312 314 312
267 268 268 269 270 271 271 272 273 275 276 278 279 279 279 280 281 282 281 280 280 281 284 287 285 282 283 283 281 282 280 275 277 283 282 279 287 298 299 297 294 292 296 301 301 304 308 312 312 311 310 310 311 310 304 298 293 290 287 284 286 289 291 289 290 287 271 264 261 253 255 264 276 286 294 300 307 312 308 304 307 308 310 311 309
267 267 268 268 269 270 271 271 273 275 277 278 278 278 278 278 279 280 279 279 279 278 281 281 275 274 279 279 277 278 276 275 279 280 276 275 288 297 294 291 290 291 296 300 300 304 309 313 312 311 309 309 309 308 300 293 288 285 283 281 283 286 287 285 286 283 270 261 256 253 257 265 275 284 292 299 306 309 302 297 299 305 309 308 307
266 267 268 268 269 269 270 271 273 275 277 279 280 280 278 276 277 277 276 275 276 277 273 268 265 268 272 272 273 274 275 277 276 272 270 275 287 294 290 287 288 291 294 296 300 306 311 313 312 310 308 307 307 304 297 291 285 282 279 279 280 282 280 280 281 276 264 256 253 254 258 267 275 283 291 298 306 305 296 291 292 302 309 306 304
266 267 268 268 269 269 270 271 273 275 276 278 280 278 275 275 276 275 273 270 270 270 265 262 265 269 269 268 269 271 276 275 266 263 267 275 286 290 287 285 288 289 289 293 301 308 312 313 311 307 305 305 304 301 296 291 286 281 278 278 277 275 275 276 276 268 259 251 250 254 260 269 276 284 291 298 306 302 294 289 286 300 308 303 302
267 267 268 268 269 270 271 271 272 273 274 272 270 272 274 275 273 271 270 268 265 264 262 264 268 268 266 265 263 264 266 259 256 261 268 277 285 286 285 285 285 284 286 293 302 309 312 311 307 303 302 303 302 300 298 295 289 282 278 275 271 270 273 275 271 263 257 252 253 258 264 271 278 286 291 298 303 298 294 286 282 299 305 300 301
267 267 268 268 269 270 271 270 270 271 273 269 264 268 273 270 266 264 262 261 262 263 263 264 267 266 265 263 260 259 255 249 256 265 270 278 283 283 282 281 280 281 287 296 303 309 310 307 303 301 302 301 300 300 299 298 290 280 275 271 269 270 273 273 268 262 258 257 259 263 269 275 282 287 289 296 300 295 290 280 282 299 301 296 297
266 267 268 268 268 268 269 269 268 268 269 269 264 266 270 266 262 263 260 258 262 263 262 262 264 265 264 261 257 256 252 250 258 266 272 278 279 278 278 279 281 285 292 299 305 308 308 303 299 299 300 297 297 298 299 298 290 277 271 270 271 274 275 272 266 260 257 259 262 267 273 278 283 284 286 295 297 292 286 276 284 297 297 295 292
266 266 267 268 267 267 267 268 267 265 263 261 261 264 267 263 258 259 259 261 263 263 262 262 262 262 261 257 254 253 253 254 260 266 271 275 274 273 276 280 286 292 298 302 305 306 304 300 297 297 295 293 295 296 297 296 287 275 269 269 270 271 274 273 266 260 259 262 266 271 276 280 283 282 287 295 294 290 284 278 285 295 296 293 288
265 265 266 267 267 266 266 266 265 263 258 251 252 255 255 254 255 258 259 261 263 263 262 262 261 261 258 254 251 250 252 256 262 267 268 269 270 271 275 282 289 295 299 302 303 303 300 297 295 294 291 291 293 293 294 292 283 275 269 267 267 267 269 271 267 264 263 265 269 275 280 283 284 285 290 294 291 287 283 280 287 295 296 289 286
263 264 265 265 266 266 265 265 264 262 257 250 247 248 249 252 256 259 259 260 261 261 261 260 259 258 255 252 251 251 253 258 262 265 265 264 267 271 276 283 289 294 298 299 299 298 296 294 293 291 289 289 290 291 290 286 279 273 269 269 270 270 271 273 271 269 268 270 274 279 284 287 288 290 295 296 291 286 283 283 288 293 290 283 287
262 263 264 264 264 265 265 264 263 261 259 255 252 252 253 255 256 257 258 257 258 259 259 258 255 253 252 251 252 253 255 258 260 261 262 263 267 272 278 283 288 293 295 296 295 294 292 291 290 289 287 287 287 286 284 281 277 272 268 268 269 271 271 272 272 273 273 275 279 283 288 290 289 289 290 286 281 279 281 283 286 287 281 279 286
262 262 263 263 263 263 263 263 262 261 259 257 256 255 255 255 256 256 256 255 255 256 255 254 252 250 249 250 251 253 254 256 256 257 259 263 268 272 277 282 287 290 292 292 290 289 289 288 288 288 286 285 283 282 279 275 273 271 269 267 268 271 273 274 275 276 277 278 281 284 285 283 282 282 281 277 274 278 282 283 282 278 274 279 286
261 262 262 262 262 262 262 261 261 260 259 259 258 256 255 254 254 254 254 254 254 254 254 252 251 249 247 247 249 252 253 255 255 257 260 264 269 272 277 281 285 288 289 288 286 286 286 286 287 286 284 283 281 279 276 269 268 268 269 270 271 273 274 276 276 277 278 278 279 281 282 281 283 285 284 281 281 283 283 279 274 271 274 281 287
258 259 259 260 260 259 259 259 258 257 257 259 257 254 253 252 251 252 252 252 252 252 253 253 252 251 249 249 249 251 253 255 257 260 263 266 270 273 277 281 284 285 284 283 283 284 284 285 286 284 281 280 278 276 272 266 263 263 265 268 269 270 271 272 273 274 276 277 279 280 281 281 281 281 279 279 280 279 277 274 272 274 278 283 287
254 254 255 255 255 255 256 255 255 254 252 252 252 250 250 250 249 250 250 251 252 253 253 254 255 255 254 254 255 255 256 257 259 261 264 268 271 274 277 280 281 281 280 280 281 282 283 285 285 281 277 276 275 273 270 263 259 259 261 264 266 267 267 268 270 271 272 275 277 277 273 268 267 268 268 269 269 269 270 271 273 276 279 282 285
250 250 250 250 250 250 251 251 251 250 247 246 247 248 249 249 249 249 250 251 252 253 254 256 257 258 258 259 260 261 261 262 263 265 267 270 273 275 277 278 278 278 277 278 279 281 282 283 281 277 274 273 272 272 269 263 259 258 259 260 262 263 263 264 266 269 271 272 271 268 263 260 260 261 262 264 265 266 268 270 273 277 279 282 283
247 246 246 246 246 246 247 247 248 248 247 245 246 248 249 250 250 251 251 252 253 254 255 256 258 259 260 261 263 264 265 266 267 269 271 272 274 275 276 276 276 275 275 276 277 279 280 280 277 274 272 270 270 270 267 263 260 259 259 259 261 263 262 262 264 267 269 270 270 267 263 260 260 261 262 264 265 266 268 270 273 276 278 279 280
245 243 241 242 242 243 244 245 246 247 247 247 248 249 249 251 252 253 254 254 255 256 257 258 258 259 261 262 264 265 267 268 269 270 271 272 273 274 274 274 273 273 273 274 275 277 277 276 274 272 270 268 267 266 264 262 260 259 260 261 262 263 263 262 262 264 268 272 274 273 269 266 265 265 266 267 267 268 269 272 273 275 276 278 280
243 240 238 238 239 241 243 244 246 247 248 248 249 250 251 252 253 254 255 255 256 257 258 259 260 261 262 263 265 266 268 269 269 270 271 271 272 272 272 271 271 271 272 272 274 274 274 273 271 269 267 265 264 262 260 260 260 259 260 262 263 264 264 263 262 265 270 274 276 276 275 274 273 272 272 272 272 272 274 275 276 276 277 279 282
242 239 237 237 238 240 241 243 245 246 247 249 250 251 252 253 254 255 256 257 258 259 260 261 262 262 263 264 265 267 267 268 269 269 270 270 270 270 269 269 269 269 270 271 272 272 271 270 268 267 265 262 260 258 257 259 262 262 263 266 268 268 266 265 264 266 272 275 277 278 279 280 279 277 276 275 275 276 277 278 278 279 279 281 283
240 238 237 237 238 239 241 243 244 246 247 249 250 252 253 254 256 257 258 260 261 262 263 263 264 264 265 265 266 266 267 267 268 268 268 268 268 268 268 268 268 268 269 269 269 270 269 267 265 264 263 261 258 256 255 257 261 264 267 270 272 272 270 269 268 270 273 276 278 280 282 283 282 280 279 279 279 279 280 280 281 281 282 282 283
239 237 236 237 239 240 241 243 245 246 248 250 251 253 255 256 258 259 261 262 263 264 264 264 265 265 265 265 265 265 265 266 267 267 267 267 267 267 267 267 267 267 267 267 267 267 265 263 262 261 261 260 258 258 258 258 260 264 267 270 272 273 272 272 273 274 275 277 278 280 281 282 281 281 281 281 280 280 281 281 281 281 282 282 284
Height
10902 10902 10902 10902 10902 10902 10903 10903 10902 10902 10901 10900 10898 10898 10897 10896 10894 10892 10890 10888 10886 10884 10882 10882 10881 10880 10879 10878 10876 10875 10874 10873 10871 10870 10868 10865 10862 10859 10856 10854 10852 10850 10848 10846 10844 10842 10840 10837 10835 10833 10830 10828 10825 10823 10821 10818 10814 10811 10809 10807 10806 10804 10802 10800 10799 10797 10796 10794 10792 10791 10789 10787 10786 10784 10783 10782 10780 10780 10779 10778 10778 10778 10776 10773 10771
10898 10898 10897 10898 10898 10898 10898 10899 10898 10897 10896 10895 10894 10893 10892 10890 10889 10887 10886 10884 10881 10880 10878 10878 10877 10877 10875 10874 10872 10871 10870 10869 10868 10866 10864 10861 10858 10855 10852 10850 10848 10845 10843 10842 10840 10838 10836 10834 10831 10829 10826 10824 10821 10819 10816 10814 10810 10807 10805 10803 10802 10800 10798 10797 10796 10794 10793 10792 10790 10789 10787 10785 10783 10782 10780 10779 10778 10777 10777 10776 10776 10776 10775 10773 10771
10893 10893 10893 10893 10893 10894 10894 10894 10893 10893 10892 10890 10889 10887 10886 10885 10883 10882 10881 10879 10877 10875 10874 10873 10873 10872 10871 10869 10868 10867 10866 10865 10864 10863 10860 10857 10854 10851 10849 10846 10844 10841 10839 10837 10836 10834 10832 10830 10828 10825 10822 10820 10817 10815 10812 10809 10807 10804 10801 10799 10798 10796 10795 10794 10793 10792 10790 10789 10788 10786 10784 10783 10781 10779 10778 10777 10776 10775 10775 10774 10774 10774 10774 10772 10770
10888 10888 10889 10889 10889 10890 10889 10889 10889 10888 10887 10886 10884 10882 10881 10880 10878 10877 10876 10874 10872 10871 10869 10868 10868 10867 10866 10865 10863 10863 10862 10861 10860 10859 10857 10854 10851 10848 10845 10842 10840 10837 10835 10833 10832 10830 10828 10826 10824 10821 10818 10816 10813 10810 10808 10805 10803 10800 10798 10796 10794 10793 10792 10791 10790 10789 10788 10787 10786 10784 10782 10780 10779 10777 10776 10775 10774 10773 10773 10772 10772 10772 10772 10770 10769
10883 10884 10884 10885 10886 10886 10885 10884 10884 10884 10883 10882 10880 10878 10877 10875 10874 10873 10872 10870 10868 10866 10864 10863 10863 10862 10861 10860 10859 10858 10858 10857 10856 10855 10853 10850 10847 10844 10841 10838 10836 10834 10831 10829 10828 10826 10824 10823 10821 10818 10814 10812 10809 10806 10804 10801 10799 10797 10795 10793 10791 10790 10789 10789 10787 10787 10786 10785 10783 10782 10780 10778 10777 10775 10774 10773 10772 10772 10771 10771 10771 10770 10770 10769 10767
10878 10879 10879 10880 10881 10881 10881 10880 10880 10879 10879 10878 10876 10874 10873 10871 10870 10868 10867 10865 10863 10862 10860 10859 10858 10857 10856 10856 10854 10853 10853 10853 10852 10851 10849 10846 10843 10840 10837 10834 10832 10830 10827 10825 10823 10821 10820 10819 10817 10814 10811 10808 10805 10802 10800 10798 10795 10793 10791 10790 10788 10787 10787 10786 10785 10785 10784 10783 10781 10780 10778 10776 10775 10773 10772 10771 10770 10769 10769 10769 10769 10768 10768 10767 10766
10874 10873 10874 10875 10876 10876 10876 10875 10875 10874 10874 10873 10872 10870 10869 10867 10866 10864 10862 10861 10859 10857 10856 10854 10853 10852 10851 10851 10850 10848 10848 10848 10847 10847 10845 10842 10839 10836 10833 10830 10828 10826 10823 10821 10819 10817 10815 10815 10814 10811 10807 10804 10801 10799 10796 10794 10792 10789 10788 10787 10786 10785 10784 10784 10783 10782 10782 10781 10779 10778 10776 10775 10773 10772 10770 10769 10768 10767 10767 10767 10766 10766 10766 10765 10765
10868 10868 10868 10870 10871 10871 10871 10870 10869 10869 10868 10868 10867 10865 10863 10862 10861 10860 10858 10856 10855 10854 10852 10851 10850 10848 10847 10846 10845 10843 10843 10843 10843 10842 10841 10839 10836 10833 10829 10827 10825 10822 10820 10817 10814 10812 10811 10811 10810 10807 10803 10800 10798 10796 10793 10791 10788 10786 10785 10784 10783 10783 10782 10782 10781 10781 10780 10779 10777 10776 10774 10773 10771 10770 10769 10767 10766 10766 10765 10765 10764 10764 10764 10764 10763
10862 10862 10863 10864 10865 10866 10866 10865 10864 10864 10863 10862 10861 10860 10858 10857 10856 10855 10853 10852 10851 10850 10849 10848 10847 10845 10842 10841 10840 10839 10838 10838 10838 10838 10837 10835 10832 10829 10826 10823 10821 10819 10816 10813 10810 10808 10807 10807 10807 10804 10800 10797 10794 10792 10790 10788 10785 10783 10782 10781 10781 10780 10780 10779 10779 10779 10778 10777 10776 10774 10773 10771 10770 10768 10767 10766 10765 10764 10763 10763 10762 10762 10762 10762 10762
10857 10857 10857 10859 10860 10861 10861 10860 10859 10858 10858 10857 10856 10855 10853 10852 10851 10850 10848 10847 10847 10846 10846 10845 10844 10841 10839 10837 10836 10835 10834 10833 10834 10835 10834 10831 10828 10826 10823 10820 10818 10816 10813 10810 10806 10803 10803 10803 10803 10802 10798 10794 10791 10789 10787 10785 10782 10780 10779 10779 10778 10778 10778 10777 10777 10777 10776 10775 10774 10772 10771 10769 10768 10767 10766 10765 10763 10762 10762 10761 10761 10760 10760 10761 10761
10851 10851 10852 10853 10854 10855 10855 10854 10853 10853 10853 10852 10851 10850 10848 10847 10846 10845 10844 10843 10843 10842 10842 10841 10840 10837 10835 10833 10832 10831 10829 10829 10829 10831 10830 10828 10825 10822 10819 10818 10816 10813 10810 10806 10802 10799 10798 10799 10800 10799 10795 10792 10788 10785 10783 10781 10779 10778 10777 10776 10776 10776 10776 10775 10775 10775 10774 10773 10772 10771 10769 10768 10767 10765 10764 10763 10762 10761 10760 10760 10759 10759 10759 10759 10759
10845 10845 10846 10848 10849 10850 10849 10849 10848 10848 10847 10846 10845 10844 10842 10841 10841 10840 10839 10839 10838 10838 10837 10837 10835 10833 10831 10829 10828 10827 10825 10824 10825 10826 10826 10825 10822 10818 10815 10814 10813 10810 10806 10802 10799 10796 10794 10795 10796 10796 10793 10789 10786 10783 10780 10778 10777 10775 10775 10774 10774 10774 10774 10773 10773 10773 10772 10771 10771 10770 10768 10767 10766 10764 10763 10762 10761 10760 10759 10759 10758 10757 10757 10757 10757
10838 10839 10841 10843 10844 10844 10844 10843 10843 10842 10841 10841 10839 10838 10836 10836 10835 10835 10834 10834 10834 10833 10832 10832 10831 10829 10827 10825 10823 10822 10821 10820 10820 10821 10822 10821 10818 10815 10812 10811 10810 10807 10803 10799 10795 10793 10791 10791 10793 10794 10792 10788 10784 10780 10778 10776 10775 10773 10772 10772 10772 10772 10772 10772 10772 10771 10770 10769 10769 10768 10767 10766 10765 10763 10762 10761 10760 10759 10758 10757 10757 10756 10756 10755 10755
10831 10833 10835 10837 10838 10839 10839 10838 10837 10836 10836 10834 10833 10832 10831 10831 10830 10830 10829 10829 10829 10828 10827 10827 10826 10824 10823 10821 10819 10818 10816 10816 10816 10817 10817 10816 10814 10811 10809 10808 10807 10803 10800 10796 10792 10790 10789 10788 10790 10791 10790 10786 10782 10779 10776 10774 10772 10772 10771 10771 10771 10771 10771 10770 10770 10769 10768 10768 10767 10766 10765 10764 10763 10762 10761 10760 10759 10758 10757 10756 10755 10755 10754 10754 10753
10824 10827 10829 10831 10832 10833 10833 10832 10831 10830 10829 10828 10826 10826 10826 10825 10825 10825 10824 10824 10824 10823 10822 10822 10821 10819 10818 10816 10815 10813 10812 10811 10811 10812 10813 10812 10809 10807 10806 10805 10803 10800 10796 10793 10790 10787 10786 10786 10786 10787 10787 10785 10780 10777 10774 10772 10771 10770 10769 10769 10769 10769 10769 10769 10768 10768 10767 10766 10765 10765 10764 10763 10762 10761 10760 10759 10758 10757 10756 10755 10754 10753 10753 10752 10752
10818 10821 10824 10826 10826 10826 10826 10825 10823 10823 10823 10821 10820 10820 10820 10820 10820 10821 10820 10819 10819 10819 10818 10817 10816 10814 10812 10811 10810 10808 10807 10806 10806 10807 10808 10808 10805 10803 10803 10801 10799 10797 10793 10791 10787 10785 10783 10783 10783 10784 10784 10782 10779 10775 10773 10771 10769 10768 10768 10768 10768 10768 10767 10767 10767 10766 10765 10764 10764 10763 10763 10762 10761 10760 10759 10758 10757 10756 10755 10754 10753 10752 10751 10750 10750
10814 10817 10818 10820 10820 10819 10819 10817 10816 10816 10816 10815 10814 10815 10815 10816 10816 10816 10816 10815 10815 10814 10813 10812 10810 10809 10807 10806 10805 10803 10802 10802 10801 10802 10803 10803 10802 10800 10800 10799 10796 10794 10791 10788 10785 10782 10780 10780 10780 10780 10780 10779 10777 10774 10771 10769 10768 10767 10767 10767 10766 10766 10766 10765 10765 10764 10763 10763 10762 10762 10761 10760 10759 10758 10758 10757 10756 10755 10754 10752 10751 10751 10750 10749 10748
10810 10812 10812 10812 10812 10812 10812 10811 10810 10810 10809 10809 10809 10810 10810 10811 10811 10811 10811 10811 10810 10809 10808 10806 10805 10804 10803 10801 10800 10799 10798 10798 10797 10797 10798 10799 10798 10797 10797 10796 10794 10791 10789 10786 10783 10780 10778 10777 10777 10777 10777 10776 10775 10772 10770 10768 10767 10766 10765 10765 10765 10764 10764 10763 10763 10762 10762 10761 10760 10760 10760 10759 10758 10757 10756 10756 10755 10753 10752 10751 10750 10749 10748 10747 10746
10804 10805 10804 10804 10804 10805 10806 10806 10805 10804 10804 10804 10804 10805 10805 10805 10805 10805 10805 10805 10804 10803 10802 10801 10801 10800 10799 10797 10796 10796 10795 10794 10793 10793 10793 10795 10795 10793 10793 10793 10792 10789 10786 10783 10781 10778 10776 10775 10774 10774 10774 10773 10772 10770 10768 10766 10765 10765 10764 10763 10763 10762 10762 10761 10761 10760 10759 10759 10759 10759 10758 10757 10756 10755 10755 10754 10753 10752 10751 10749 10748 10747 10746 10745 10744
10797 10797 10796 10795 10796 10797 10799 10799 10799 10798 10798 10799 10799 10799 10800 10800 10800 10799 10799 10799 10798 10798 10797 10797 10796 10796 10794 10794 10793 10793 10791 10790 10790 10789 10789 10790 10791 10790 10789 10790 10789 10787 10784 10782 10779 10776 10774 10773 10771 10771 10770 10770 10770 10769 10767 10765 10764 10763 10762 10761 10760 10760 10760 10759 10759 10758 10757 10757 10757 10757 10756 10756 10755 10754 10753 10753 10752 10751 10749 10748 10747 10746 10745 10744 10742
10790 10790 10788 10788 10788 10789 10791 10792 10792 10792 10793 10793 10794 10795 10795 10794 10794 10793 10794 10794 10793 10792 10792 10792 10792 10791 10790 10790 10791 10790 10787 10787 10787 10786 10784 10785 10786 10786 10785 10786 10786 10784 10782 10779 10777 10774 10772 10770 10769 10768 10768 10768 10767 10767 10765 10764 10762 10761 10761 10759 10758 10758 10758 10757 10756 10755 10755 10754 10755 10755 10754 10754 10753 10752 10752 10751 10751 10749 10748 10747 10745 10744 10743 10742 10741
10783 10782 10781 10781 10781 10782 10784 10785 10786 10786 10788 10789 10789 10790 10789 10789 10788 10788 10788 10788 10788 10787 10788 10788 10787 10786 10786 10787 10789 10788 10784 10783 10783 10783 10781 10780 10781 10782 10782 10782 10782 10781 10779 10777 10775 10772 10770 10768 10766 10765 10765 10765 10765 10764 10763 10762 10760 10759 10758 10757 10756 10755 10755 10755 10754 10753 10752 10752 10752 10753 10752 10752 10751 10750 10750 10749 10749 10748 10746 10745 10744 10743 10742 10740 10739
10776 10774 10774 10775 10775 10777 10778 10779 10780 10780 10782 10783 10784 10784 10783 10783 10783 10783 10783 10783 10783 10783 10782 10783 10783 10782 10782 10783 10784 10784 10781 10780 10780 10779 10777 10776 10776 10778 10779 10779 10778 10777 10776 10775 10773 10770 10767 10765 10763 10762 10762 10762 10762 10761 10760 10760 10759 10758 10757 10755 10754 10753 10752 10752 10751 10750 10750 10750 10750 10750 10750 10750 10749 10749 10748 10747 10747 10746 10744 10743 10742 10741 10740 10739 10737
10768 10767 10767 10769 10770 10771 10773 10774 10774 10775 10777 10778 10779 10778 10778 10778 10778 10778 10778 10778 10778 10778 10777 10777 10778 10777 10777 10779 10779 10779 10777 10776 10776 10775 10773 10772 10772 10774 10775 10775 10775 10774 10773 10772 10770 10768 10765 10762 10761 10759 10759 10759 10759 10758 10758 10757 10757 10756 10755 10753 10752 10750 10750 10749 10748 10748 10747 10748 10748 10748 10748 10747 10747 10746 10746 10745 10745 10744 10742 10741 10740 10739 10738 10737 10736
10761 10761 10761 10763 10764 10766 10767 10768 10769 10771 10773 10773 10774 10774 10773 10773 10774 10773 10773 10773 10773 10773 10772 10772 10773 10773 10773 10774 10774 10773 10773 10772 10771 10770 10769 10769 10768 10769 10771 10772 10772 10771 10770 10769 10767 10765 10763 10760 10758 10757 10755 10755 10756 10755 10755 10755 10754 10753 10752 10750 10749 10748 10747 10746 10745 10745 10745 10745 10746 10745 10745 10745 10745 10744 10744 10743 10742 10741 10740 10739 10738 10737 10736 10735 10734
10755 10755 10756 10757 10758 10760 10761 10762 10764 10767 10768 10769 10770 10769 10769 10769 10769 10768 10768 10767 10768 10768 10768 10768 10768 10768 10768 10769 10769 10768 10768 10768 10766 10766 10765 10765 10764 10765 10767 10767 10768 10768 10767 10765 10764 10763 10761 10758 10756 10754 10753 10752 10753 10752 10752 10751 10751 10750 10748 10747 10746 10745 10744 10743 10743 10743 10743 10743 10743 10743 10743 10743 10743 10742 10742 10741 10740 10739 10738 10737 10736 10735 10734 10733 10732
10749 10748 10749 10751 10752 10754 10756 10757 10759 10762 10764 10765 10765 10765 10765 10765 10765 10764 10763 10763 10763 10763 10763 10763 10763 10763 10763 10764 10764 10764 10764 10763 10762 10762 10762 10761 10761 10761 10762 10763 10763 10764 10763 10762 10761 10759 10758 10756 10754 10752 10750 10750 10750 10749 10748 10748 10747 10746 10744 10743 10743 10742 10741 10741 10740 10740 10740 10740 10741 10741 10740 10741 10740 10740 10739 10738 10738 10737 10736 10735 10734 10733 10732 10731 10731
10741 10741 10743 10746 10748 10749 10751 10753 10755 10757 10760 10761 10761 10761 10761 10761 10760 10760 10759 10759 10759 10759 10759 10759 10758 10758 10758 10759 10759 10759 10759 10759 10758 10758 10758 10757 10757 10757 10758 10758 10759 10760 10760 10759 10758 10756 10755 10753 10751 10749 10747 10747 10747 10746 10744 10744 10743 10742 10741 10741 10740 10739 10739 10738 10737 10737 10737 10738 10738 10738 10738 10738 10738 10737 10737 10736 10735 10735 10734 10733 10732 10731 10730 10730 10729
10735 10736 10738 10741 10742 10745 10748 10749 10750 10753 10756 10757 10757 10757 10757 10756 10755 10755 10755 10755 10755 10755 10756 10755 10753 10752 10753 10755 10754 10754 10755 10755 10754 10754 10753 10753 10753 10753 10754 10754 10755 10756 10756 10755 10754 10753 10752 10750 10748 10746 10744 10744 10743 10742 10741 10740 10739 10739 10738 10738 10737 10736 10736 10735 10735 10734 10735 10735 10736 10736 10736 10736 10736 10735 10734 10734 10733 10733 10732 10731 10730 10729 10729 10728 10728
10729 10731 10733 10736 10738 10741 10745 10746 10746 10749 10752 10753 10753 10753 10752 10751 10750 10750 10749 10750 10751 10752 10753 10751 10747 10746 10748 10750 10750 10750 10750 10750 10750 10750 10749 10749 10749 10749 10750 10750 10751 10752 10752 10751 10751 10750 10749 10747 10745 10743 10741 10740 10739 10738 10737 10736 10736 10735 10735 10734 10734 10733 10733 10732 10732 10731 10732 10733 10733 10733 10733 10733 10733 10732 10732 10731 10731 10730 10730 10729 10728 10728 10727 10727 10726
10721 10725 10728 10732 10734 10736 10740 10742 10743 10745 10749 10750 10748 10747 10746 10745 10745 10745 10743 10743 10746 10748 10751 10749 10743 10742 10744 10745 10746 10746 10746 10746 10746 10746 10745 10745 10745 10745 10746 10746 10747 10748 10748 10748 10747 10746 10745 10744 10742 10739 10737 10736 10736 10735 10733 10733 10732 10732 10732 10731 10731 10730 10730 10729 10729 10729 10729 10730 10730 10731 10731 10731 10731 10730 10730 10730 10729 10728 10728 10727 10727 10726 10726 10725 10725
10715 10719 10724 10727 10729 10731 10735 10738 10740 10742 10745 10745 10743 10740 10740 10740 10741 10741 10739 10738 10740 10744 10746 10744 10741 10741 10741 10742 10743 10743 10742 10741 10741 10741 10741 10741 10741 10741 10742 10742 10743 10744 10745 10745 10744 10743 10742 10740 10738 10735 10734 10733 10733 10732 10730 10729 10729 10729 10728 10728 10727 10727 10727 10726 10726 10726 10727 10727 10728 10728 10728 10728 10728 10728 10728 10727 10727 10726 10725 10725 10725 10724 10724 10723 10723
10711 10715 10719 10722 10724 10726 10730 10733 10737 10739 10741 10743 10740 10733 10733 10736 10736 10736 10735 10734 10736 10738 10739 10738 10738 10738 10739 10739 10740 10742 10740 10736 10736 10737 10736 10737 10737 10737 10738 10739 10740 10741 10741 10741 10740 10739 10737 10736 10734 10732 10731 10730 10730 10729 10727 10726 10726 10725 10724 10724 10724 10724 10724 10724 10724 10724 10724 10725 10725 10726 10726 10726 10726 10725 10725 10725 10724 10723 10723 10723 10723 10722 10721 10721 10721
10707 10710 10714 10717 10719 10721 10725 10729 10733 10735 10738 10742 10737 10729 10729 10732 10730 10731 10731 10729 10730 10732 10732 10732 10733 10734 10735 10736 10737 10739 10739 10733 10731 10732 10732 10733 10733 10733 10734 10735 10736 10737 10737 10737 10737 10735 10734 10732 10730 10729 10728 10728 10727 10726 10724 10723 10722 10721 10720 10720 10720 10721 10721 10722 10722 10722 10722 10723 10723 10723 10723 10723 10723 10723 10723 10723 10722 10721 10720 10720 10720 10720 10719 10719 10719
10702 10704 10708 10711 10714 10717 10719 10723 10727 10731 10734 10734 10730 10728 10727 10725 10723 10725 10727 10724 10724 10726 10727 10727 10728 10729 10731 10732 10732 10734 10733 10729 10727 10728 10728 10729 10729 10729 10730 10731 10732 10733 10733 10733 10733 10732 10730 10728 10726 10726 10725 10724 10723 10722 10721 10720 10719 10718 10716 10716 10717 10718 10719 10719 10720 10720 10720 10720 10720 10720 10721 10721 10721 10720 10720 10720 10719 10718 10718 10718 10718 10718 10717 10717 10716
10696 10698 10701 10705 10708 10711 10713 10716 10722 10727 10731 10726 10721 10722 10722 10719 10718 10719 10721 10720 10719 10720 10721 10723 10723 10724 10726 10727 10728 10728 10728 10726 10724 10724 10724 10725 10725 10725 10726 10726 10727 10727 10728 10728 10728 10727 10726 10724 10723 10722 10722 10721 10720 10719 10718 10717 10716 10714 10713 10713 10714 10715 10715 10717 10717 10717 10717 10717 10717 10718 10718 10718 10718 10718 10717 10717 10716 10715 10715 10715 10715 10715 10714 10714 10714
10690 10692 10694 10697 10701 10705 10707 10710 10715 10721 10728 10725 10716 10714 10714 10713 10714 10714 10715 10715 10715 10716 10716 10717 10718 10719 10721 10722 10723 10724 10723 10722 10721 10721 10721 10722 10722 10722 10722 10722 10722 10722 10723 10723 10723 10723 10722 10721 10720 10719 10719 10718 10717 10715 10715 10714 10713 10711 10711 10711 10712 10712 10713 10714 10715 10715 10715 10714 10715 10715 10715 10715 10715 10714 10714 10714 10713 10712 10712 10713 10713 10712 10711 10711 10711
10683 10685 10689 10691 10694 10698 10700 10703 10707 10713 10722 10723 10714 10708 10706 10707 10708 10709 10709 10710 10710 10710 10711 10712 10713 10714 10716 10717 10718 10720 10720 10718 10717 10717 10717 10717 10718 10718 10718 10718 10718 10718 10719 10719 10719 10718 10717 10717 10717 10716 10716 10715 10714 10712 10711 10711 10710 10708 10708 10708 10709 10710 10710 10711 10711 10711 10711 10711 10711 10711 10711 10711 10711 10711 10711 10710 10710 10709 10709 10709 10710 10709 10708 10708 10708
10677 10679 10682 10685 10687 10690 10693 10695 10699 10704 10710 10713 10708 10704 10702 10701 10702 10703 10704 10704 10704 10705 10706 10707 10708 10709 10710 10711 10713 10714 10715 10713 10713 10713 10713 10713 10713 10714 10714 10713 10714 10715 10716 10716 10715 10714 10714 10713 10713 10713 10713 10712 10710 10709 10708 10707 10706 10706 10705 10706 10706 10707 10707 10707 10708 10708 10708 10708 10708 10708 10707 10707 10707 10707 10707 10707 10707 10707 10706 10706 10706 10706 10706 10706 10705
10671 10674 10676 10679 10681 10683 10686 10688 10690 10694 10698 10701 10700 10699 10697 10696 10697 10697 10698 10698 10699 10699 10700 10701 10703 10704 10705 10706 10707 10708 10709 10709 10709 10709 10709 10709 10709 10709 10709 10709 10710 10711 10712 10712 10712 10711 10710 10709 10710 10710 10709 10708 10707 10705 10704 10703 10703 10702 10703 10703 10704 10703 10703 10704 10704 10704 10704 10704 10704 10704 10703 10703 10703 10704 10704 10704 10704 10704 10703 10703 10703 10703 10703 10702 10702
10664 10667 10670 10673 10675 10676 10678 10680 10682 10685 10688 10691 10692 10692 10691 10691 10691 10691 10692 10692 10693 10694 10695 10696 10697 10698 10699 10700 10702 10703 10703 10704 10704 10704 10705 10705 10705 10705 10705 10705 10706 10707 10708 10708 10708 10707 10706 10705 10706 10706 10706 10704 10703 10702 10701 10699 10699 10699 10699 10700 10701 10700 10700 10700 10700 10700 10700 10700 10700 10700 10700 10700 10700 10700 10701 10701 10701 10700 10700 10699 10699 10699 10699 10698 10698
10658 10661 10664 10666 10669 10670 10672 10673 10675 10677 10681 10684 10685 10685 10685 10685 10685 10685 10686 10687 10688 10689 10689 10691 10692 10693 10694 10695 10696 10697 10698 10699 10700 10700 10700 10700 10700 10701 10701 10701 10702 10703 10704 10704 10704 10703 10702 10702 10702 10702 10702 10701 10699 10698 10697 10696 10696 10696 10696 10697 10697 10697 10697 10696 10696 10696 10696 10696 10696 10696 10697 10696 10696 10696 10697 10697 10697 10696 10696 10696 10696 10696 10695 10694 10694
10652 10654 10657 10660 10662 10664 10665 10667 10669 10671 10676 10679 10679 10679 10679 10679 10679 10680 10680 10681 10682 10683 10684 10685 10686 10687 10688 10689 10691 10692 10693 10694 10695 10695 10696 10696 10696 10696 10697 10697 10698 10699 10700 10700 10700 10699 10698 10698 10698 10698 10698 10697 10696 10695 10694 10694 10693 10693 10694 10694 10694 10694 10694 10693 10693 10693 10693 10693 10693 10693 10693 10693 10693 10693 10693 10694 10694 10694 10694 10693 10693 10692 10692 10691 10691
10646 10649 10651 10653 10655 10658 10659 10661 10663 10665 10672 10676 10674 10672 10672 10673 10674 10674 10675 10676 10676 10677 10678 10679 10681 10682 10683 10684 10685 10687 10688 10689 10690 10690 10691 10691 10692 10692 10693 10693 10693 10694 10695 10696 10696 10695 10694 10694 10694 10694 10694 10693 10692 10691 10691 10690 10690 10690 10691 10691 10691 10691 10690 10690 10690 10690 10690 10689 10689 10690 10690 10690 10690 10690 10691 10692 10692 10692 10691 10690 10689 10689 10688 10687 10687
10641 10643 10645 10647 10649 10652 10654 10655 10657 10659 10664 10668 10667 10665 10666 10667 10668 10669 10670 10671 10671 10672 10673 10674 10675 10676 10677 10678 10680 10681 10682 10683 10684 10685 10685 10686 10687 10687 10688 10689 10689 10690 10691 10691 10691 10691 10690 10690 10690 10690 10690 10689 10688 10688 10687 10686 10686 10686 10687 10687 10687 10687 10687 10686 10686 10686 10686 10686 10686 10686 10687 10687 10687 10687 10687 10688 10688 10687 10687 10686 10685 10685 10684 10684 10683
10635 10638 10639 10641 10643 10646 10648 10650 10651 10653 10656 10659 10660 10660 10661 10662 10663 10664 10665 10666 10666 10667 10668 10669 10670 10671 10672 10673 10674 10675 10676 10678 10679 10679 10680 10681 10682 10682 10683 10684 10685 10685 10686 10687 10687 10687 10686 10686 10686 10686 10685 10685 10684 10684 10683 10682 10682 10682 10682 10683 10683 10683 10682 10682 10683 10683 10683 10683 10683 10683 10683 10683 10682 10682 10683 10683 10683 10682 10682 10682 10682 10681 10680 10680 10679
10630 10632 10634 10636 10638 10640 10642 10644 10645 10647 10650 10652 10653 10654 10655 10656 10658 10659 10660 10661 10662 10663 10663 10664 10665 10666 10667 10668 10669 10670 10671 10672 10673 10674 10675 10675 10677 10678 10679 10680 10680 10681 10681 10682 10682 10682 10681 10681 10681 10681 10681 10681 10680 10679 10679 10678 10678 10678 10679 10680 10680 10679 10679 10678 10679 10679 10679 10679 10679 10679 10678 10677 10677 10677 10678 10678 10678 10677 10677 10677 10677 10677 10676 10676 10675
10624 10626 10628 10630 10633 10635 10637 10639 10640 10642 10644 10646 10648 10649 10650 10652 10653 10655 10656 10656 10657 10658 10659 10660 10661 10661 10662 10663 10664 10665 10666 10667 10668 10669 10670 10671 10672 10673 10674 10675 10676 10676 10676 10676 10677 10677 10677 10676 10676 10675 10675 10676 10676 10676 10675 10673 10674 10675 10676 10676 10676 10676 10675 10675 10676 10676 10676 10676 10675 10674 10673 10672 10672 10672 10673 10674 10673 10673 10673 10673 10673 10672 10672 10672 10671
10619 10621 10624 10626 10628 10631 10633 10634 10636 10637 10640 10642 10643 10644 10646 10648 10649 10651 10651 10652 10653 10654 10655 10656 10656 10657 10658 10659 10660 10661 10661 10662 10663 10663 10664 10666 10667 10668 10669 10670 10670 10671 10671 10671 10671 10672 10672 10672 10671 10670 10670 10670 10671 10671 10670 10669 10671 10672 10673 10673 10673 10673 10673 10673 10673 10674 10674 10673 10672 10671 10669 10668 10668 10668 10669 10669 10669 10669 10669 10669 10668 10668 10668 10667 10667
10615 10617 10619 10621 10624 10626 10628 10630 10631 10633 10635 10637 10639 10640 10642 10644 10646 10647 10648 10649 10650 10650 10651 10651 10652 10653 10654 10655 10656 10656 10657 10657 10658 10658 10659 10660 10661 10663 10663 10664 10665 10666 10666 10666 10667 10667 10667 10667 10666 10665 10665 10665 10666 10666 10666 10666 10667 10668 10669 10670 10670 10670 10669 10670 10670 10671 10671 10670 10669 10667 10666 10665 10664 10665 10665 10665 10665 10665 10665 10664 10664 10664 10664 10663 10662
10611 10613 10615 10617 10619 10621 10624 10626 10628 10630 10631 10633 10635 10636 10638 10640 10642 10643 10644 10645 10646 10646 10647 10647 10648 10649 10649 10650 10651 10651 10652 10652 10653 10653 10654 10655 10656 10657 10658 10659 10659 10660 10661 10661 10662 10663 10663 10662 10661 10661 10661 10661 10661 10661 10661 10662 10664 10665 10666 10668 10668 10667 10666 10666 10666 10667 10667 10666 10665 10663 10662 10661 10661 10661 10661 10661 10661 10660 10661 10660 10660 10659 10659 10658 10658